[[{"header":{"parameterUnit":"m.s-1","parameterCategory":1,"la1":30.2991,"la2":30.254,"lo1":-89.0895,"lo2":-89.0444,"dy":0.0017,"dx":0.0017,"nx":28,"ny":28,"refTime":"2023-09-25T21:00:00:Z","depth":0,"parameterNumber":2,"parameterNumberName":"U-component_of_WINDS"},"data":[0,0,0,0,0,0,0,0,0,0,0,0,0,0,0,0,0,0,0,0,0,0,0,0,0,0,0,0,0,0,0,0,0,0,0,0,0,0,0,0,0,0,0,0,0,0,0,0,0,0,0,0,0,0,0,0,0,0,-4.6611,-4.6612,0,-4.665,-4.665,-4.6651,-4.6592,-4.659,-4.6588,-4.6587,-4.6622,-4.6625,-4.6628,0,0,0,0,0,0,0,0,0,0,0,0,0,-4.6483,-4.6486,-4.6611,-4.6612,-4.6612,-4.665,-4.665,-4.6651,-4.6593,-4.659,-4.6588,-4.6586,-4.6621,-4.6625,-4.6628,0,0,0,0,0,0,0,0,0,0,0,0,0,-4.6532,-4.6487,-4.6611,-4.6588,-4.6586,-4.665,-4.665,-4.6651,-4.6593,-4.659,-4.6587,-4.6584,-4.662,-4.6624,-4.6628,-4.6715,0,0,-4.6641,-4.6643,0,0,0,0,0,0,0,0,-4.6529,-4.6537,-4.6591,-4.659,-4.6588,-4.6613,-4.6618,-4.6672,-4.6594,-4.6591,-4.6586,-4.6583,-4.6621,-4.6625,-4.6639,-4.6717,-4.6719,-4.6642,-4.6644,-4.6646,-4.6647,0,0,0,0,0,0,0,-4.6526,-4.6535,-4.6626,-4.6592,-4.659,-4.6574,-4.6578,-4.6628,-4.6622,-4.6591,-4.6587,-4.6592,-4.662,-4.6635,-4.664,-4.6719,-4.6642,-4.6645,-4.6648,-4.665,-4.6867,-4.687,0,0,0,0,0,0,-4.6526,-4.6532,-4.6625,-4.6628,-4.6551,-4.6579,-4.6583,-4.6608,-4.6622,-4.6621,-4.6595,-4.6589,-4.6629,-4.6635,-4.6641,-4.674,-4.6646,-4.665,-4.6653,-4.6864,-4.6868,-4.6871,0,0,0,0,0,0,-4.6524,-4.6535,-4.6624,-4.6579,-4.6589,-4.6585,-4.6613,-4.6611,-4.6626,-4.6625,-4.6623,-4.6611,-4.6627,-4.6635,-4.6697,-4.6741,-4.6652,-4.6656,-4.686,-4.6865,-4.687,-4.6942,0,0,0,0,0,0,-4.652,-4.6534,-4.6568,-4.658,-4.6592,-4.6681,-4.6616,-4.6614,-4.6634,-4.6627,-4.664,-4.6639,-4.6625,-4.6691,-4.6701,-4.6745,-4.6659,-4.6856,-4.6862,-4.6868,-4.6936,-4.6949,-4.696,0,0,0,0,0,-4.6516,-4.6587,-4.657,-4.6582,-4.6634,-4.6683,-4.669,-4.6673,-4.6638,-4.667,-4.667,-4.6639,-4.6735,-4.6698,-4.6709,-4.6755,-4.6853,-4.686,-4.6868,-4.693,-4.6946,-4.696,0,0,0,0,0,0,-4.6579,-4.6588,-4.657,-4.6647,-4.6665,-4.6673,-4.6714,-4.6691,-4.6719,-4.6711,-4.6689,-4.6692,-4.6758,-4.6763,-4.6721,-4.6838,-4.6788,-4.6798,-4.6832,-4.6847,-4.6859,-4.6854,-4.6663,0,0,0,0,0,-4.6603,-4.6643,-4.6648,-4.6716,-4.6726,-4.6719,-4.674,-4.6726,-4.6743,-4.675,-4.6754,-4.677,-4.6804,-4.6826,-4.6858,-4.6938,-4.6938,-4.6975,-4.6987,-4.6997,-4.7004,-4.7044,-4.7059,-4.6895,-4.6895,-4.6895,0,0,-4.665,-4.666,-4.6687,-4.6729,-4.6741,-4.6781,-4.6726,-4.6771,-4.68,-4.6756,-4.6814,-4.6818,-4.6835,-4.6906,-4.6937,-4.6912,-4.705,-4.7006,-4.7014,-4.7016,-4.7053,-4.7068,-4.7082,-4.69,-4.6899,-4.6898,0,0,-4.6757,-4.677,-4.6827,-4.684,-4.686,-4.6855,-4.6869,-4.6881,-4.6881,-4.694,-4.6907,-4.6941,-4.7001,-4.7013,-4.7027,-4.714,-4.7111,-4.7151,-4.7213,-4.7251,-4.7264,-4.7275,-4.7312,-4.7326,-4.7159,-4.7159,-4.7159,0,-4.6813,-4.6874,-4.6858,-4.6906,-4.6924,-4.6888,-4.6943,-4.6957,-4.6986,-4.6998,-4.697,-4.7043,-4.7052,-4.7123,-4.7151,-4.7165,-4.7178,-4.7147,-4.7264,-4.7275,-4.7285,-4.732,-4.7334,-4.7163,-4.7163,-4.7163,-4.7162,0,-4.694,-4.6983,-4.7026,-4.7055,-4.7079,-4.713,-4.712,-4.7146,-4.7131,-4.7128,-4.7187,-4.7197,-4.7228,-4.7245,-4.7231,-4.7315,-4.7298,-4.7268,-4.7216,-4.7306,-4.7337,-4.7351,-4.717,-4.7168,-4.7167,-4.7166,0,0,-4.7085,-4.7105,-4.7121,-4.7132,-4.7152,-4.7183,-4.7233,-4.7265,-4.7285,-4.7307,-4.7345,-4.7397,-4.7369,-4.7385,-4.7372,-4.7407,-4.749,-4.7372,-4.7371,-4.739,-4.7579,-4.7599,-4.7614,-4.7473,-4.7476,-4.7478,-4.7576,0,-4.7188,-4.7274,-4.7261,-4.7343,-4.738,-4.7347,-4.739,-4.7405,-4.7405,-4.7435,-4.7434,-4.7469,-4.7432,-4.7441,-4.7474,-4.7473,-4.7527,-4.7466,-4.7506,-4.7507,-4.7498,-4.7632,-4.7653,-4.7745,-4.7589,-4.7591,-4.7593,0,-4.732,-4.7346,-4.7432,-4.7443,-4.7459,-4.7497,-4.7524,-4.7555,-4.7572,-4.7568,-4.7587,-4.7567,-4.7614,-4.7566,-4.7629,-4.7587,-4.7603,-4.7606,-4.7609,-4.7608,-4.7552,-4.7631,-4.7775,-4.7787,-4.7613,-4.7611,-4.761,0,-4.7412,-4.7469,-4.7527,-4.7539,-4.7555,-4.7582,-4.759,-4.7604,-4.7623,-4.7647,-4.7659,-4.7688,-4.7703,-4.7725,-4.7713,-4.7679,-4.7777,-4.7728,-4.7773,-4.7773,-4.7792,-4.779,-4.7936,-4.781,-4.7809,-4.7809,-4.7809,0,-4.7526,-4.7579,-4.7568,-4.7603,-4.7661,-4.7646,-4.7703,-4.7706,-4.7719,-4.7753,-4.7727,-4.7759,-4.7743,-4.7774,-4.7765,-4.7816,-4.7825,-4.7821,-4.7817,-4.7821,-4.7821,-4.7828,-4.782,-4.7813,-4.7812,-4.7811,-4.7811,0,-4.7637,-4.7633,-4.7693,-4.7704,-4.7708,-4.7749,-4.7757,-4.7789,-4.7788,-4.783,-4.784,-4.7836,-4.7871,-4.7862,-4.79,-4.7894,-4.7958,-4.7948,-4.7952,-4.7948,-4.7992,-4.7987,-4.8144,-4.8163,-4.8028,-4.803,-4.8031,0,-4.7708,-4.7748,-4.7763,-4.7784,-4.7794,-4.7829,-4.7849,-4.7836,-4.7857,-4.7879,-4.7907,-4.794,-4.7965,-4.8022,-4.8021,-4.8049,-4.8037,-4.8091,-4.8041,-4.8043,-4.8033,-4.8029,-4.8032,-4.8099,-4.8101,-4.8102,-4.8103,0,-4.7833,-4.7829,-4.7859,-4.7888,-4.7913,-4.7935,-4.7954,-4.7973,-4.7962,-4.7987,-4.8022,-4.8042,-4.808,-4.8111,-4.8138,-4.8144,-4.8121,-4.812,-4.8131,-4.8133,-4.8132,-4.8129,-4.7974,-4.8115,-4.8114,-4.8113,-4.8112,-4.8112,-4.7924,-4.7956,-4.7972,-4.8005,-4.8019,-4.8038,-4.8068,-4.807,-4.8099,-4.813,-4.8121,-4.816,-4.8175,-4.8207,-4.8217,-4.8247,-4.8226,-4.8243,-4.8247,-4.825,-4.8254,-4.8131,-4.8252,-4.8252,-4.8251,-4.8251,-4.8251,0,-4.8044,-4.8052,-4.8084,-4.8112,-4.8138,-4.8117,-4.8137,-4.816,-4.8195,-4.8211,-4.8236,-4.8276,-4.8307,-4.831,-4.8338,-4.8361,-4.835,-4.8368,-4.8364,-4.8365,-4.8273,-4.8258,-4.8376,-4.8376,-4.8375,-4.8375,-4.8375,-4.8375,-4.8109,-4.8162,-4.816,-4.8219,-4.8227,-4.8266,-4.8279,-4.8295,-4.8308,-4.8353,-4.8379,-4.8381,-4.8391,-4.842,-4.8446,-4.8446,-4.8456,-4.8477,-4.8472,-4.8385,-4.8372,-4.836,-4.8346,-4.848,-4.848,-4.8562,-4.8562,-4.8563]},{"header":{"parameterUnit":"m.s-1","parameterCategory":1,"la1":30.2991,"la2":30.254,"lo1":-89.0895,"lo2":-89.0444,"dy":0.0017,"dx":0.0017,"nx":28,"ny":28,"refTime":"2023-09-25T21:00:00:Z","depth":0,"parameterNumber":3,"parameterNumberName":"V-component_of_WINDS"},"data":[0,0,0,0,0,0,0,0,0,0,0,0,0,0,0,0,0,0,0,0,0,0,0,0,0,0,0,0,0,0,0,0,0,0,0,0,0,0,0,0,0,0,0,0,0,0,0,0,0,0,0,0,0,0,0,0,0,0,1.5721,1.5721,0,1.5773,1.5773,1.5774,1.5782,1.5782,1.5781,1.5781,1.5831,1.5833,1.5834,0,0,0,0,0,0,0,0,0,0,0,0,0,1.5626,1.5628,1.572,1.5721,1.5722,1.5773,1.5773,1.5774,1.5782,1.5782,1.5781,1.5781,1.583,1.5833,1.5835,0,0,0,0,0,0,0,0,0,0,0,0,0,1.5671,1.5628,1.572,1.5732,1.5734,1.5773,1.5773,1.5774,1.5782,1.5782,1.5781,1.578,1.583,1.5832,1.5835,1.5865,0,0,1.5843,1.5844,0,0,0,0,0,0,0,0,1.5669,1.5675,1.573,1.5731,1.5733,1.577,1.5759,1.5805,1.5783,1.5764,1.5781,1.578,1.5811,1.5815,1.5826,1.5867,1.5869,1.5843,1.5845,1.5846,1.5847,0,0,0,0,0,0,0,1.5666,1.5673,1.5741,1.573,1.5733,1.5734,1.574,1.5767,1.579,1.5765,1.5766,1.5772,1.5812,1.5824,1.5828,1.587,1.5843,1.5845,1.5847,1.5848,1.5939,1.594,0,0,0,0,0,0,1.5661,1.567,1.5739,1.5743,1.5699,1.5736,1.5743,1.5759,1.579,1.5794,1.5773,1.5773,1.582,1.5825,1.5829,1.5867,1.5846,1.5848,1.585,1.5938,1.5939,1.594,0,0,0,0,0,0,1.5659,1.5667,1.5737,1.5707,1.5716,1.5739,1.5757,1.576,1.5772,1.5796,1.58,1.5781,1.5819,1.5826,1.5857,1.5869,1.585,1.5852,1.5937,1.5939,1.594,1.5942,0,0,0,0,0,0,1.5656,1.5666,1.5678,1.5707,1.5717,1.5764,1.5758,1.5762,1.5777,1.5777,1.5805,1.5808,1.5819,1.5853,1.5859,1.5872,1.5854,1.5936,1.5938,1.5939,1.5941,1.5943,1.5945,0,0,0,0,0,1.5652,1.5675,1.5678,1.5687,1.5733,1.5765,1.5771,1.5784,1.5778,1.579,1.5806,1.5808,1.5867,1.5856,1.5863,1.5877,1.5936,1.5938,1.5939,1.594,1.5943,1.5945,0,0,0,0,0,0,1.5645,1.5679,1.5683,1.5716,1.5738,1.5766,1.5781,1.5786,1.5808,1.5807,1.5822,1.5828,1.5858,1.5871,1.5858,1.5909,1.5901,1.5904,1.5899,1.5902,1.5904,1.5899,1.5856,0,0,0,0,0,1.5648,1.5672,1.57,1.5726,1.5737,1.5758,1.5772,1.5781,1.5803,1.5811,1.5829,1.585,1.5874,1.5888,1.5911,1.5944,1.595,1.5957,1.5959,1.5961,1.5963,1.5982,1.5986,1.5947,1.5947,1.5946,0,0,1.5653,1.5675,1.5688,1.5726,1.5743,1.5767,1.5765,1.579,1.5808,1.5815,1.5845,1.5859,1.5884,1.5916,1.593,1.5927,1.5976,1.5963,1.5964,1.5966,1.5984,1.5988,1.5991,1.5948,1.5948,1.5947,0,0,1.5674,1.5693,1.5718,1.5736,1.5764,1.5778,1.5784,1.5812,1.5822,1.5853,1.5859,1.588,1.592,1.5938,1.5952,1.5983,1.5985,1.599,1.6,1.6018,1.6021,1.6024,1.6035,1.6039,1.5992,1.5992,1.5992,0,1.5676,1.5714,1.5729,1.5755,1.5771,1.5781,1.5806,1.5823,1.5856,1.5867,1.5863,1.5915,1.5932,1.5968,1.5976,1.5987,1.5994,1.5986,1.602,1.6023,1.6026,1.6036,1.604,1.5993,1.5993,1.5992,1.5992,0,1.5715,1.5741,1.5758,1.5791,1.581,1.5835,1.5854,1.5871,1.5878,1.5892,1.5924,1.5946,1.5973,1.5983,1.599,1.6021,1.6018,1.6017,1.6009,1.603,1.604,1.6044,1.5993,1.5993,1.5993,1.5993,0,0,1.5731,1.5776,1.5781,1.5797,1.5829,1.5849,1.5875,1.5904,1.5918,1.5941,1.5963,1.5998,1.5998,1.6014,1.6023,1.6039,1.6062,1.6036,1.6037,1.604,1.6098,1.6098,1.6103,1.6065,1.6066,1.6067,1.6096,0,1.5756,1.5804,1.582,1.5859,1.5883,1.5894,1.5917,1.5938,1.5953,1.5975,1.5991,1.6015,1.6013,1.6023,1.604,1.6056,1.6074,1.6054,1.6085,1.6086,1.6077,1.6108,1.6108,1.6135,1.61,1.6101,1.6101,0,1.5791,1.5817,1.5859,1.5889,1.59,1.592,1.5949,1.597,1.5996,1.6005,1.6024,1.6033,1.606,1.6052,1.609,1.6076,1.609,1.61,1.6101,1.6104,1.6094,1.6111,1.6144,1.6147,1.6108,1.6107,1.6107,0,1.5799,1.5844,1.5875,1.5888,1.5925,1.5939,1.5954,1.5979,1.5996,1.6021,1.6032,1.6059,1.6074,1.6094,1.611,1.6103,1.6147,1.614,1.6155,1.6154,1.6162,1.6161,1.6197,1.6172,1.6172,1.6172,1.6172,0,1.5824,1.5849,1.5879,1.5898,1.5927,1.5945,1.5973,1.5989,1.6012,1.6034,1.6045,1.6065,1.6085,1.6108,1.612,1.615,1.6156,1.6164,1.6167,1.6163,1.6162,1.6171,1.6169,1.6173,1.6173,1.6173,1.6173,0,1.5837,1.5858,1.5892,1.5925,1.5934,1.5954,1.5981,1.6,1.6016,1.6044,1.6052,1.6076,1.6104,1.6122,1.6157,1.6166,1.6198,1.6201,1.619,1.6191,1.6205,1.6203,1.6247,1.6253,1.6225,1.6225,1.6225,0,1.5851,1.5871,1.5907,1.5923,1.594,1.5966,1.5983,1.6003,1.6021,1.6053,1.6068,1.6097,1.6121,1.6165,1.6185,1.6212,1.6215,1.6229,1.6219,1.6215,1.6215,1.6213,1.6215,1.623,1.623,1.623,1.623,0,1.5875,1.5885,1.5911,1.5941,1.5962,1.5986,1.601,1.6023,1.6047,1.6066,1.6096,1.6115,1.6152,1.618,1.621,1.6225,1.6232,1.6234,1.6238,1.6234,1.6227,1.623,1.6193,1.6232,1.6232,1.6232,1.6232,1.6232,1.5888,1.5907,1.5936,1.5965,1.5985,1.6008,1.6028,1.6047,1.6073,1.6105,1.6115,1.6146,1.6172,1.6213,1.6229,1.6253,1.6251,1.6258,1.626,1.6261,1.6261,1.6224,1.6258,1.6258,1.6258,1.6258,1.6258,0,1.5912,1.5932,1.5959,1.5993,1.6016,1.6022,1.605,1.6068,1.6095,1.612,1.6144,1.6178,1.6207,1.623,1.626,1.6274,1.6278,1.6281,1.628,1.6283,1.6261,1.6254,1.6278,1.6278,1.6278,1.6278,1.6278,1.6278,1.5927,1.596,1.5973,1.6016,1.6035,1.6067,1.6082,1.6103,1.6123,1.6161,1.6185,1.6201,1.6226,1.6257,1.6283,1.629,1.6299,1.6302,1.6309,1.6287,1.6285,1.6283,1.6276,1.6304,1.6304,1.6329,1.6329,1.6329]}]]